Weather History for Bainbridge, GA

Change the Weather History Date:

Tuesday, October 1, 2013

  Actual Average (KMAI) Record (KMAI)
Temperature  
Mean Temperature 76 °F 74 °F  
Max Temperature 87 °F 85 °F 91 °F (2006)
Min Temperature 64 °F 63 °F 48 °F (2001)
Degree Days  
Heating Degree Days 0    
Month to date heating degree days  
Since 1 July heating degree days  
Cooling Degree Days 10    
Month to date cooling degree days  
Year to date cooling degree days  
Growing Degree Days 26 (Base 50)    
Moisture  
Dew Point 66 °F    
Average Humidity 73    
Maximum Humidity 94    
Minimum Humidity 52    
Precipitation  
Precipitation 0.00 in 0.08 in 0.15 in (2012)
Month to date precipitation 0.08  
Year to date precipitation 42.21  
Sea Level Pressure  
Sea Level Pressure 30.07 in    
Wind  
Wind Speed 5 mph (ENE)    
Max Wind Speed 12 mph    
Max Gust Speed -    
Visibility 10 miles    
Events      
T = Trace of Precipitation, MM = Missing Value Source: NWS Daily Summary

Daily Weather History Graph

Daily Weather History Graph

Search for Another Location

Airport:

Trip Planner

Search our weather history database for the weather conditions in past years. The results will help you decide how hot, cold, wet, or windy it might be!

Date:

Astronomy

Oct. 01, 2013 Rise Set
Actual Time 7:32 AM EDT 7:23 PM EDT
Civil Twilight 7:08 AM EDT 7:47 PM EDT
Nautical Twilight 6:40 AM EDT 8:15 PM EDT
Astronomical Twilight 6:12 AM EDT 8:43 PM EDT
Moon 4:17 AM EDT (10/1) 5:17 PM EDT (10/1)
Length of Visible Light 12h 39m
Length of Day
11h 51m
Waning Crescent, 12% of the Moon is Illuminated
Oct 1
Waning Crescent
Oct 4
New
Oct 11
First Quarter
Oct 18
Full
Oct 26
Last Quarter

Hourly Weather History & Observations

Time (EDT) Temp. Heat Index Dew Point Humidity Pressure Visibility Wind Dir Wind Speed Gust Speed Precip Events Conditions
12:15 AM 68.0 °F - 64.4 °F 88% 30.05 in 10.0 mi East 3.5 mph - N/A   Overcast
12:35 AM 68.0 °F - 64.4 °F 88% 30.05 in 10.0 mi East 3.5 mph - N/A   Mostly Cloudy
12:55 AM 68.0 °F - 64.4 °F 88% 30.05 in 10.0 mi East 3.5 mph - N/A   Mostly Cloudy
1:15 AM 68.0 °F - 64.4 °F 88% 30.05 in 10.0 mi East 4.6 mph - N/A   Mostly Cloudy
1:35 AM 68.0 °F - 64.4 °F 88% 30.05 in 10.0 mi ENE 5.8 mph - N/A   Mostly Cloudy
1:55 AM 68.0 °F - 64.4 °F 88% 30.05 in 10.0 mi East 4.6 mph - N/A   Mostly Cloudy
2:15 AM 68.0 °F - 64.4 °F 88% 30.05 in 10.0 mi East 4.6 mph - N/A   Scattered Clouds
2:35 AM 68.0 °F - 64.4 °F 88% 30.05 in 10.0 mi East 6.9 mph - N/A   Scattered Clouds
2:55 AM 68.0 °F - 64.4 °F 88% 30.05 in 10.0 mi East 4.6 mph - N/A   Scattered Clouds
3:15 AM 68.0 °F - 62.6 °F 83% 30.05 in 10.0 mi East 4.6 mph - N/A   Scattered Clouds
3:35 AM 68.0 °F - 62.6 °F 83% 30.05 in 10.0 mi East 5.8 mph - N/A   Scattered Clouds
3:55 AM 68.0 °F - 64.4 °F 88% 30.04 in 10.0 mi East 4.6 mph - N/A   Mostly Cloudy
4:15 AM 68.0 °F - 62.6 °F 83% 30.04 in 10.0 mi East 4.6 mph - N/A   Scattered Clouds
4:35 AM 66.2 °F - 62.6 °F 88% 30.04 in 10.0 mi East 3.5 mph - N/A   Clear
4:55 AM 66.2 °F - 62.6 °F 88% 30.04 in 10.0 mi East 4.6 mph - N/A   Clear
5:15 AM 66.2 °F - 62.6 °F 88% 30.05 in 10.0 mi East 4.6 mph - N/A   Clear
5:35 AM 64.4 °F - 62.6 °F 94% 30.05 in 10.0 mi ENE 4.6 mph - N/A   Clear
5:55 AM 64.4 °F - 62.6 °F 94% 30.05 in 10.0 mi East 3.5 mph - N/A   Clear
6:15 AM 64.4 °F - 62.6 °F 94% 30.06 in 10.0 mi ENE 3.5 mph - N/A   Clear
6:35 AM 64.4 °F - 62.6 °F 94% 30.06 in 10.0 mi ENE 3.5 mph - N/A   Clear
6:55 AM 64.4 °F - 62.6 °F 94% 30.07 in 10.0 mi ENE 3.5 mph - N/A   Clear
7:15 AM 64.4 °F - 62.6 °F 94% 30.08 in 10.0 mi NE 4.6 mph - N/A   Clear
7:35 AM 66.2 °F - 64.4 °F 94% 30.08 in 10.0 mi NE 4.6 mph - N/A   Clear
7:55 AM 66.2 °F - 62.6 °F 88% 30.09 in 10.0 mi NE 4.6 mph - N/A   Clear
8:15 AM 66.2 °F - 62.6 °F 88% 30.09 in 10.0 mi NE 6.9 mph - N/A   Clear
8:35 AM 68.0 °F - 64.4 °F 88% 30.10 in 10.0 mi ENE 5.8 mph - N/A   Scattered Clouds
8:55 AM 71.6 °F - 64.4 °F 78% 30.11 in 10.0 mi ENE 6.9 mph - N/A   Scattered Clouds
9:15 AM 73.4 °F - 68.0 °F 83% 30.11 in 10.0 mi East 5.8 mph - N/A   Clear
9:35 AM 73.4 °F - 64.4 °F 73% 30.11 in 10.0 mi East 8.1 mph - N/A   Scattered Clouds
9:55 AM 77.0 °F - 64.4 °F 65% 30.11 in 10.0 mi East 6.9 mph - N/A   Clear
10:15 AM 77.0 °F - 64.4 °F 65% 30.12 in 10.0 mi East 6.9 mph - N/A   Clear
10:35 AM 78.8 °F - 66.2 °F 65% 30.12 in 10.0 mi East 9.2 mph - N/A   Clear
10:55 AM 78.8 °F - 66.2 °F 65% 30.11 in 10.0 mi East 6.9 mph - N/A   Clear
11:15 AM 80.6 °F 82.3 °F 64.4 °F 58% 30.11 in 10.0 mi East 9.2 mph - N/A   Clear
11:35 AM 80.6 °F 82.3 °F 64.4 °F 58% 30.11 in 10.0 mi East 10.4 mph - N/A   Mostly Cloudy
11:55 AM 84.2 °F 86.6 °F 66.2 °F 55% 30.11 in 10.0 mi ESE 6.9 mph - N/A   Mostly Cloudy
12:15 PM 84.2 °F 86.6 °F 66.2 °F 55% 30.10 in 10.0 mi East 6.9 mph - N/A   Mostly Cloudy
12:35 PM 84.2 °F 86.6 °F 66.2 °F 55% 30.10 in 10.0 mi East 5.8 mph - N/A   Scattered Clouds
12:55 PM 86.0 °F 89.4 °F 68.0 °F 55% 30.09 in 10.0 mi ESE 4.6 mph - N/A   Scattered Clouds
1:15 PM 86.0 °F 89.4 °F 68.0 °F 55% 30.08 in 10.0 mi NE 6.9 mph - N/A   Scattered Clouds
1:35 PM 86.0 °F 89.4 °F 68.0 °F 55% 30.08 in 10.0 mi ENE 8.1 mph - N/A   Scattered Clouds
1:55 PM 86.0 °F 89.4 °F 68.0 °F 55% 30.07 in 10.0 mi ENE 4.6 mph - N/A   Scattered Clouds
2:15 PM 84.2 °F 87.3 °F 68.0 °F 58% 30.06 in 10.0 mi ENE 5.8 mph - N/A   Mostly Cloudy
2:35 PM 86.0 °F 89.4 °F 68.0 °F 55% 30.05 in 10.0 mi ENE 5.8 mph - N/A   Mostly Cloudy
2:55 PM 86.0 °F 89.4 °F 68.0 °F 55% 30.05 in 10.0 mi NNE 9.2 mph - N/A   Scattered Clouds
3:15 PM 86.0 °F 89.4 °F 68.0 °F 55% 30.04 in 10.0 mi NE 5.8 mph - N/A   Scattered Clouds
3:35 PM 86.0 °F 89.4 °F 68.0 °F 55% 30.04 in 10.0 mi NE 4.6 mph - N/A   Scattered Clouds
3:55 PM 86.0 °F 89.4 °F 68.0 °F 55% 30.03 in 10.0 mi NE 8.1 mph - N/A   Scattered Clouds
4:15 PM 87.8 °F 91.4 °F 68.0 °F 52% 30.03 in 10.0 mi ENE 9.2 mph - N/A   Scattered Clouds
4:35 PM 86.0 °F 89.4 °F 68.0 °F 55% 30.03 in 10.0 mi NE 8.1 mph - N/A   Scattered Clouds
4:55 PM 87.8 °F 91.4 °F 68.0 °F 52% 30.03 in 10.0 mi ENE 5.8 mph - N/A   Scattered Clouds
5:15 PM 86.0 °F 89.4 °F 68.0 °F 55% 30.02 in 10.0 mi ENE 3.5 mph - N/A   Clear
5:35 PM 87.8 °F 91.4 °F 68.0 °F 52% 30.02 in 10.0 mi East 6.9 mph - N/A   Clear
5:55 PM 86.0 °F 89.4 °F 68.0 °F 55% 30.02 in 10.0 mi East 4.6 mph - N/A   Clear
6:15 PM 86.0 °F 89.4 °F 68.0 °F 55% 30.02 in 10.0 mi NE 6.9 mph - N/A   Clear
6:35 PM 84.2 °F 87.3 °F 68.0 °F 58% 30.02 in 10.0 mi ENE 11.5 mph - N/A   Scattered Clouds
6:55 PM 82.4 °F 85.4 °F 68.0 °F 62% 30.03 in 10.0 mi ENE 6.9 mph - N/A   Clear
7:15 PM 80.6 °F 83.9 °F 69.8 °F 70% 30.04 in 10.0 mi ENE 5.8 mph - N/A   Clear
7:35 PM 78.8 °F - 69.8 °F 74% 30.04 in 10.0 mi ENE 4.6 mph - N/A   Clear
7:55 PM 78.8 °F - 69.8 °F 74% 30.05 in 10.0 mi NE 4.6 mph - N/A   Clear
8:15 PM 78.8 °F - 69.8 °F 74% 30.05 in 10.0 mi NE 4.6 mph - N/A   Clear
8:35 PM 77.0 °F - 68.0 °F 74% 30.05 in 10.0 mi ENE 4.6 mph - N/A   Clear
8:55 PM 77.0 °F - 69.8 °F 78% 30.06 in 10.0 mi ENE 4.6 mph - N/A   Clear
9:15 PM 75.2 °F - 68.0 °F 78% 30.07 in 10.0 mi ENE 4.6 mph - N/A   Clear
9:35 PM 75.2 °F - 68.0 °F 78% 30.08 in 10.0 mi ENE 4.6 mph - N/A   Clear
9:55 PM 75.2 °F - 68.0 °F 78% 30.08 in 10.0 mi ENE 5.8 mph - N/A   Mostly Cloudy
10:15 PM 75.2 °F - 68.0 °F 78% 30.09 in 10.0 mi East 3.5 mph - N/A   Overcast
10:35 PM 75.2 °F - 68.0 °F 78% 30.10 in 10.0 mi East 3.5 mph - N/A   Overcast
10:55 PM 75.2 °F - 68.0 °F 78% 30.09 in 10.0 mi East 6.9 mph - N/A   Mostly Cloudy
11:15 PM 73.4 °F - 66.2 °F 78% 30.10 in 10.0 mi East 8.1 mph - N/A   Clear
11:35 PM 73.4 °F - 66.2 °F 78% 30.10 in 10.0 mi East 3.5 mph - N/A   Scattered Clouds
11:55 PM 73.4 °F - 64.4 °F 73% 30.09 in 10.0 mi Calm Calm - N/A   Scattered Clouds